Corning, AR

4:57 AM CDT on October 19, 2017 (GMT -0500)
Corning

Weather History for K4M9 - January, 2014

Change the Weather History Date:

Wednesday, January 29, 2014

  Actual Average (KARG) Record (KARG)
Temperature  
Mean Temperature 22 °F -  
Max Temperature 35 °F 44 °F 71 °F (2002)
Min Temperature 8 °F 30 °F 8 °F (2014)
Degree Days  
Heating Degree Days 44    
Moisture  
Dew Point 7 °F    
Average Humidity 55    
Maximum Humidity 79    
Minimum Humidity 30    
Precipitation  
Precipitation 0.00 in - - ()
Sea Level Pressure  
Sea Level Pressure 30.37 in    
Wind  
Wind Speed 6 mph (South)    
Max Wind Speed 16 mph    
Max Gust Speed 20 mph    
Visibility 10 miles    
Events      
Averages and records for this station are not official NWS values.
T = Trace of Precipitation, MM = Missing Value Source: NWS Daily Summary

Daily Weather History Graph

Daily Weather History Graph

Search for Another Location

Airport or City:

Trip Planner

Search our weather history database for the weather conditions in past years. The results will help you decide how hot, cold, wet, or windy it might be!

Date:

Astronomy

Jan. 29, 2014 Rise Set
Actual Time 7:06 AM CST 5:25 PM CST
Civil Twilight 6:38 AM CST 5:52 PM CST
Nautical Twilight 6:08 AM CST 6:23 PM CST
Astronomical Twilight 5:37 AM CST 6:54 PM CST
Moon 5:42 AM CST (1/29) 4:25 PM CST (1/29)
Length of Visible Light 11h 14m
Length of Day
10h 19m
Waning Crescent, 2% of the Moon is Illuminated
Jan 29
Waning Crescent
Jan 30
New
Feb 6
First Quarter
Feb 14
Full
Feb 22
Last Quarter

Hourly Weather History & Observations

Time (CST) Temp. Windchill Dew Point Humidity Pressure Visibility Wind Dir Wind Speed Gust Speed Precip Events Conditions
12:15 AM 14.0 °F - 5.0 °F 67% 30.45 in 10.0 mi Calm Calm - N/A   Clear
12:35 AM 14.0 °F - 5.0 °F 67% 30.45 in 10.0 mi Calm Calm - N/A   Clear
12:55 AM 14.0 °F 6.5 °F 5.0 °F 67% 30.45 in 10.0 mi SSW 4.6 mph - N/A   Clear
1:15 AM 14.0 °F 5.1 °F 3.2 °F 62% 30.45 in 10.0 mi SSW 5.8 mph - N/A   Clear
1:35 AM 8.6 °F -1.3 °F 1.4 °F 73% 30.44 in 10.0 mi East 5.8 mph - N/A   Clear
1:55 AM 10.4 °F 0.8 °F 3.2 °F 73% 30.44 in 10.0 mi ESE 5.8 mph - N/A   Clear
2:15 AM 8.6 °F -2.6 °F 3.2 °F 79% 30.44 in 10.0 mi SE 6.9 mph - N/A   Clear
2:35 AM 8.6 °F -2.6 °F 3.2 °F 79% 30.43 in 10.0 mi ESE 6.9 mph - N/A   Clear
2:55 AM 10.4 °F -0.4 °F 5.0 °F 79% 30.43 in 10.0 mi ESE 6.9 mph - N/A   Clear
3:15 AM 10.4 °F 2.2 °F 5.0 °F 79% 30.43 in 10.0 mi ESE 4.6 mph - N/A   Clear
3:35 AM 14.0 °F 6.5 °F 6.8 °F 73% 30.43 in 10.0 mi South 4.6 mph - N/A   Scattered Clouds
3:55 AM 12.2 °F 1.7 °F 5.0 °F 73% 30.43 in 10.0 mi SSE 6.9 mph - N/A   Scattered Clouds
4:15 AM 14.0 °F 6.5 °F 6.8 °F 73% 30.43 in 10.0 mi South 4.6 mph - N/A   Mostly Cloudy
4:35 AM 12.2 °F 2.9 °F 5.0 °F 73% 30.43 in 10.0 mi SSE 5.8 mph - N/A   Mostly Cloudy
4:55 AM 12.2 °F 4.3 °F 5.0 °F 73% 30.43 in 10.0 mi SSE 4.6 mph - N/A   Mostly Cloudy
5:15 AM 10.4 °F 0.8 °F 5.0 °F 79% 30.42 in 10.0 mi SSE 5.8 mph - N/A   Mostly Cloudy
5:35 AM 10.4 °F 0.8 °F 5.0 °F 79% 30.42 in 10.0 mi SSE 5.8 mph - N/A   Overcast
5:55 AM 12.2 °F 4.3 °F 5.0 °F 73% 30.42 in 10.0 mi SSE 4.6 mph - N/A   Partly Cloudy
6:15 AM 12.2 °F 1.7 °F 5.0 °F 73% 30.43 in 10.0 mi SSE 6.9 mph - N/A   Clear
6:35 AM 12.2 °F 2.9 °F 5.0 °F 73% 30.43 in 10.0 mi SSE 5.8 mph - N/A   Clear
6:55 AM 12.2 °F 4.3 °F 5.0 °F 73% 30.43 in 10.0 mi South 4.6 mph - N/A   Clear
7:15 AM 10.4 °F - 5.0 °F 79% 30.43 in 10.0 mi Calm Calm - N/A   Clear
7:35 AM 10.4 °F 4.0 °F 5.0 °F 79% 30.44 in 10.0 mi South 3.5 mph - N/A   Clear
7:55 AM 14.0 °F 8.2 °F 6.8 °F 73% 30.43 in 10.0 mi South 3.5 mph - N/A   Clear
8:15 AM 15.8 °F 10.2 °F 8.6 °F 73% 30.43 in 10.0 mi SSE 3.5 mph - N/A   Clear
8:35 AM 17.6 °F 12.3 °F 10.4 °F 73% 30.43 in 10.0 mi South 3.5 mph - N/A   Clear
8:55 AM 19.4 °F 12.8 °F 10.4 °F 68% 30.44 in 10.0 mi South 4.6 mph - N/A   Clear
9:15 AM 21.2 °F 16.4 °F 10.4 °F 63% 30.45 in 10.0 mi South 3.5 mph - N/A   Clear
9:35 AM 23.0 °F 14.7 °F 10.4 °F 59% 30.45 in 10.0 mi SSW 6.9 mph - N/A   Clear
9:55 AM 24.8 °F 16.1 °F 8.6 °F 50% 30.45 in 10.0 mi SSW 8.1 mph - N/A   Clear
10:15 AM 26.6 °F 16.2 °F 5.0 °F 40% 30.45 in 10.0 mi SSW 11.5 mph - N/A   Clear
10:35 AM 28.4 °F 19.1 °F 5.0 °F 37% 30.46 in 10.0 mi SSW 10.4 mph - N/A   Clear
10:55 AM 28.4 °F 18.0 °F 6.8 °F 40% 30.46 in 10.0 mi SW 12.7 mph - N/A   Clear
11:15 AM 28.4 °F 18.0 °F 5.0 °F 37% 30.45 in 10.0 mi SSW 12.7 mph 18.4 mph N/A   Clear
11:35 AM 28.4 °F 17.5 °F 6.8 °F 40% 30.44 in 10.0 mi SSW 13.8 mph - N/A   Clear
11:55 AM 30.2 °F 18.9 °F 6.8 °F 37% 30.42 in 10.0 mi SW 16.1 mph 19.6 mph N/A   Clear
12:15 PM 30.2 °F 19.8 °F 8.6 °F 40% 30.41 in 10.0 mi SSW 13.8 mph 18.4 mph N/A   Clear
12:35 PM 32.0 °F 23.0 °F 8.6 °F 38% 30.40 in 10.0 mi SSW 11.5 mph - N/A   Clear
12:55 PM 32.0 °F 23.6 °F 8.6 °F 38% 30.39 in 10.0 mi SSW 10.4 mph 17.3 mph N/A   Clear
1:15 PM 32.0 °F 22.5 °F 8.6 °F 38% 30.38 in 10.0 mi SW 12.7 mph 17.3 mph N/A   Clear
1:35 PM 32.0 °F 24.2 °F 8.6 °F 38% 30.37 in 10.0 mi SSW 9.2 mph - N/A   Clear
1:55 PM 33.8 °F 27.0 °F 6.8 °F 32% 30.36 in 10.0 mi WSW 8.1 mph 17.3 mph N/A   Clear
2:15 PM 33.8 °F 25.8 °F 6.8 °F 32% 30.35 in 10.0 mi SW 10.4 mph - N/A   Clear
2:35 PM 33.8 °F 28.6 °F 6.8 °F 32% 30.35 in 10.0 mi SSW 5.8 mph - N/A   Clear
2:55 PM 33.8 °F 27.7 °F 6.8 °F 32% 30.34 in 10.0 mi SSW 6.9 mph - N/A   Clear
3:15 PM 35.6 °F 28.0 °F 6.8 °F 30% 30.33 in 10.0 mi SSW 10.4 mph - N/A   Clear
3:35 PM 35.6 °F 29.2 °F 6.8 °F 30% 30.32 in 10.0 mi South 8.1 mph - N/A   Clear
3:55 PM 35.6 °F 30.7 °F 6.8 °F 30% 30.32 in 10.0 mi South 5.8 mph - N/A   Clear
4:15 PM 35.6 °F 28.6 °F 6.8 °F 30% 30.32 in 10.0 mi South 9.2 mph - N/A   Clear
4:35 PM 33.8 °F 27.0 °F 6.8 °F 32% 30.31 in 10.0 mi South 8.1 mph - N/A   Clear
4:55 PM 32.0 °F 23.6 °F 8.6 °F 38% 30.31 in 10.0 mi South 10.4 mph - N/A   Clear
5:15 PM 32.0 °F 23.6 °F 8.6 °F 38% 30.30 in 10.0 mi South 10.4 mph - N/A   Clear
5:35 PM 32.0 °F 23.6 °F 8.6 °F 38% 30.30 in 10.0 mi South 10.4 mph - N/A   Clear
5:55 PM 28.4 °F 20.4 °F 8.6 °F 43% 30.29 in 10.0 mi South 8.1 mph - N/A   Clear
6:15 PM 28.4 °F 19.7 °F 8.6 °F 43% 30.30 in 10.0 mi South 9.2 mph - N/A   Clear
6:35 PM 28.4 °F 19.7 °F 10.4 °F 47% 30.30 in 10.0 mi South 9.2 mph - N/A   Clear
6:55 PM 26.6 °F 16.8 °F 10.4 °F 51% 30.30 in 10.0 mi South 10.4 mph - N/A   Clear
7:15 PM 28.4 °F 19.1 °F 10.4 °F 47% 30.29 in 10.0 mi South 10.4 mph - N/A   Clear
7:35 PM 26.6 °F 16.8 °F 10.4 °F 51% 30.29 in 10.0 mi South 10.4 mph - N/A   Clear
7:55 PM 26.6 °F 16.8 °F 10.4 °F 51% 30.29 in 10.0 mi South 10.4 mph - N/A   Clear
8:15 PM 24.8 °F 15.3 °F 10.4 °F 54% 30.28 in 10.0 mi South 9.2 mph - N/A   Clear
8:35 PM 26.6 °F 17.5 °F 10.4 °F 51% 30.28 in 10.0 mi South 9.2 mph - N/A   Clear
8:55 PM 24.8 °F 16.9 °F 10.4 °F 54% 30.29 in 10.0 mi South 6.9 mph - N/A   Clear
9:15 PM 24.8 °F 16.1 °F 10.4 °F 54% 30.28 in 10.0 mi South 8.1 mph - N/A   Clear
9:35 PM 24.8 °F 15.3 °F 10.4 °F 54% 30.28 in 10.0 mi South 9.2 mph - N/A   Clear
9:55 PM 24.8 °F 15.3 °F 10.4 °F 54% 30.27 in 10.0 mi South 9.2 mph - N/A   Clear
10:15 PM 24.8 °F 15.3 °F 10.4 °F 54% 30.27 in 10.0 mi South 9.2 mph - N/A   Clear
10:35 PM 24.8 °F 14.6 °F 12.2 °F 59% 30.27 in 10.0 mi South 10.4 mph - N/A   Clear
10:55 PM 24.8 °F 13.4 °F 10.4 °F 54% 30.26 in 10.0 mi South 12.7 mph 17.3 mph N/A   Clear
11:15 PM 24.8 °F 12.9 °F 10.4 °F 54% 30.26 in 10.0 mi South 13.8 mph - N/A   Clear
11:35 PM 24.8 °F 12.9 °F 10.4 °F 54% 30.25 in 10.0 mi South 13.8 mph 18.4 mph N/A   Clear
11:55 PM 24.8 °F 12.9 °F 10.4 °F 54% 30.25 in 10.0 mi South 13.8 mph - N/A   Clear